User: anonymous   Login
Location: Deuil
(48.9767°N, 2.3272°E)
Time: 15:58:27
(UTC+00:00)
Language:

Cosmos 44 - Orbit

View from above orbital plane
View from above orbital plane
View from above satellite
View from above satellite

Ground track
Ground track

The orbit data is extracted from the following two-line orbital elements,

1 00876U 64053A   22021.71918037 -.00000070  00000-0  11654-4 0  9991
2 00876  65.0611  27.6879 0137584 180.0091 180.1033 14.63839493 53248
Epoch (UTC): 21 January 2022 17:15:37
Eccentricity: 0.0137584
inclination: 65.0611°
perigee height: 583 km
apogee height: 778 km
right ascension of ascending node: 27.6879°
argument of perigee: 180.0091°
revolutions per day: 14.63839493
mean anomaly at epoch: 180.1033°
orbit number at epoch: 5324

The dashed part of the orbit path shows where the satellite is in the earth's shadow,  

DLR